When you browse on this site, cookies collect data to enhance your experience and personalize the content and advertising you see.
Visit our Privacy Policy to learn more. By continuing to use the site, you agree to this use of cookies and data.
  • In Lithuania
  • List of Countries
  • For 7 days
  • Water Temperature
  • Satellite Maps
  • Weather Map
  • Weather Widgets
  • user-avatar
    Login

    Hourly Weather Ovcharovka

    Today, 26 March, Tuesday

    Time Temperature Precipitation Wind Pressure Humidity
    00:00 -5°C° 0 mm 3 mps 737 mmHg 88%
    01:00 -5°C° 0 mm 3 mps 737 mmHg 87%
    02:00 -5°C° 0 mm 3 mps 736 mmHg 86%
    03:00 -5°C° 0 mm 3 mps 736 mmHg 85%
    04:00 -4°C° 0.1 mm 3 mps 736 mmHg 87%
    05:00 -3°C° 0.1 mm 2 mps 735 mmHg 89%
    06:00 -3°C° 0.1 mm 2 mps 735 mmHg 91%
    07:00 -2°C° 0.1 mm 2 mps 735 mmHg 92%
    08:00 -2°C° 0.1 mm 2 mps 734 mmHg 93%
    09:00 +1°C° 0.1 mm 1 mps 734 mmHg 95%
    10:00 -1°C° 0 mm 2 mps 734 mmHg 96%
    11:00 -1°C° 0 mm 2 mps 734 mmHg 98%
    12:00 +1°C° 0 mm 2 mps 734 mmHg 99%
    13:00 +1°C° 0 mm 2 mps 734 mmHg 99%
    14:00 0°C° 0 mm 3 mps 734 mmHg 99%
    15:00 0°C° 0 mm 3 mps 734 mmHg 99%
    16:00 0°C° 0 mm 3 mps 735 mmHg 98%
    17:00 0°C° 0 mm 3 mps 735 mmHg 97%
    18:00 -1°C° 0 mm 3 mps 735 mmHg 97%
    19:00 -1°C° 0.1 mm 3 mps 735 mmHg 95%
    20:00 0°C° 0.1 mm 3 mps 736 mmHg 92%
    21:00 0°C° 0.1 mm 3 mps 736 mmHg 90%
    22:00 -1°C° 0 mm 3 mps 736 mmHg 90%
    23:00 -2°C° 0 mm 3 mps 737 mmHg 91%

    Tomorrow, 27 March, Wednesday

    Time Temperature Precipitation Wind Pressure Humidity
    00:00 -4°C° 0 mm 3 mps 737 mmHg 91%
    01:00 -5°C° 0 mm 3 mps 737 mmHg 90%
    02:00 -5°C° 0 mm 3 mps 737 mmHg 89%
    03:00 -6°C° 0 mm 3 mps 738 mmHg 89%
    04:00 -5°C° 0 mm 2 mps 738 mmHg 88%
    05:00 -6°C° 0 mm 2 mps 738 mmHg 88%
    06:00 -6°C° 0 mm 2 mps 739 mmHg 87%
    07:00 -5°C° 0 mm 2 mps 739 mmHg 87%
    08:00 -4°C° 0 mm 2 mps 740 mmHg 87%
    09:00 -4°C° 0 mm 2 mps 740 mmHg 87%
    10:00 -3°C° 0 mm 2 mps 740 mmHg 89%
    11:00 -2°C° 0 mm 2 mps 741 mmHg 90%
    12:00 -1°C° 0 mm 2 mps 741 mmHg 92%
    13:00 -1°C° 0 mm 2 mps 741 mmHg 92%
    14:00 +1°C° 0 mm 2 mps 741 mmHg 92%
    15:00 +1°C° 0 mm 2 mps 741 mmHg 93%
    16:00 -1°C° 0 mm 2 mps 742 mmHg 88%
    17:00 -1°C° 0 mm 2 mps 742 mmHg 83%
    18:00 -2°C° 0 mm 2 mps 742 mmHg 77%
    19:00 -3°C° 0 mm 2 mps 742 mmHg 78%
    20:00 -4°C° 0 mm 2 mps 743 mmHg 79%
    21:00 -4°C° 0 mm 2 mps 743 mmHg 80%
    22:00 -6°C° 0 mm 3 mps 743 mmHg 82%
    23:00 -6°C° 0 mm 3 mps 743 mmHg 83%

    Day after tomorrow, 28 March, Thursday

    Time Temperature Precipitation Wind Pressure Humidity
    00:00 -6°C° 0 mm 3 mps 743 mmHg 85%
    01:00 -6°C° 0 mm 3 mps 744 mmHg 86%
    02:00 -7°C° 0 mm 3 mps 744 mmHg 87%
    03:00 -7°C° 0 mm 3 mps 744 mmHg 88%
    04:00 -7°C° 0 mm 3 mps 744 mmHg 88%
    05:00 -7°C° 0 mm 3 mps 744 mmHg 88%
    06:00 -8°C° 0 mm 3 mps 744 mmHg 88%
    07:00 -8°C° 0 mm 4 mps 745 mmHg 88%
    08:00 -7°C° 0 mm 4 mps 745 mmHg 88%
    09:00 -6°C° 0 mm 5 mps 746 mmHg 87%
    10:00 -5°C° 0 mm 5 mps 746 mmHg 86%
    11:00 -4°C° 0 mm 5 mps 746 mmHg 84%
    12:00 -4°C° 0 mm 5 mps 746 mmHg 82%
    13:00 -4°C° 0 mm 5 mps 746 mmHg 81%
    14:00 -2°C° 0 mm 5 mps 746 mmHg 80%
    15:00 -2°C° 0 mm 4 mps 746 mmHg 79%
    16:00 -2°C° 0 mm 4 mps 746 mmHg 78%
    17:00 -2°C° 0 mm 3 mps 746 mmHg 78%
    18:00 -4°C° 0 mm 3 mps 746 mmHg 78%
    19:00 -4°C° 0 mm 3 mps 746 mmHg 77%
    20:00 -5°C° 0 mm 3 mps 746 mmHg 76%
    21:00 -6°C° 0 mm 3 mps 747 mmHg 76%
    22:00 -6°C° 0 mm 3 mps 746 mmHg 76%
    23:00 -6°C° 0 mm 3 mps 746 mmHg 77%

    29 March, Friday

    Time Temperature Precipitation Wind Pressure Humidity
    00:00 -6°C° 0 mm 3 mps 745 mmHg 78%
    01:00 -7°C° 0 mm 4 mps 745 mmHg 78%
    02:00 -5°C° 0 mm 4 mps 745 mmHg 79%
    03:00 -5°C° 0 mm 4 mps 744 mmHg 79%
    04:00 -5°C° 0 mm 4 mps 744 mmHg 83%
    05:00 -5°C° 0 mm 5 mps 743 mmHg 86%
    06:00 -5°C° 0 mm 5 mps 743 mmHg 89%
    07:00 -4°C° 0.1 mm 5 mps 742 mmHg 90%
    08:00 -2°C° 0.1 mm 5 mps 742 mmHg 92%
    09:00 -2°C° 0.1 mm 5 mps 742 mmHg 94%
    10:00 -1°C° 0.1 mm 5 mps 741 mmHg 95%
    11:00 -1°C° 0.1 mm 5 mps 741 mmHg 96%
    12:00 -1°C° 0.1 mm 5 mps 741 mmHg 98%
    13:00 -1°C° 0 mm 5 mps 740 mmHg 98%
    14:00 0°C° 0 mm 4 mps 740 mmHg 98%
    15:00 0°C° 0 mm 4 mps 740 mmHg 98%
    16:00 0°C° 0 mm 4 mps 740 mmHg 96%
    17:00 0°C° 0 mm 5 mps 740 mmHg 94%
    18:00 0°C° 0 mm 5 mps 741 mmHg 93%
    19:00 -1°C° 0 mm 4 mps 741 mmHg 91%
    20:00 -2°C° 0 mm 4 mps 741 mmHg 89%
    21:00 -1°C° 0 mm 3 mps 741 mmHg 88%
    22:00 -1°C° 0 mm 3 mps 741 mmHg 89%
    23:00 -1°C° 0 mm 3 mps 741 mmHg 90%

    30 March, Saturday

    Time Temperature Precipitation Wind Pressure Humidity
    00:00 -1°C° 0 mm 3 mps 741 mmHg 91%
    01:00 -1°C° 0 mm 3 mps 741 mmHg 93%
    02:00 0°C° 0 mm 3 mps 741 mmHg 94%
    03:00 0°C° 0 mm 3 mps 741 mmHg 96%
    04:00 0°C° 0 mm 3 mps 740 mmHg 95%
    05:00 0°C° 0 mm 3 mps 740 mmHg 94%
    06:00 -1°C° 0 mm 4 mps 740 mmHg 93%
    07:00 -1°C° 0 mm 4 mps 739 mmHg 95%
    08:00 0°C° 0 mm 5 mps 739 mmHg 97%
    09:00 0°C° 0 mm 5 mps 739 mmHg 99%
    10:00 -1°C° 0 mm 6 mps 738 mmHg 99%
    11:00 +1°C° 0 mm 6 mps 738 mmHg 99%
    12:00 +1°C° 0 mm 6 mps 738 mmHg 99%
    13:00 +1°C° 0 mm 6 mps 737 mmHg 98%
    14:00 +2°C° 0 mm 6 mps 737 mmHg 97%
    15:00 +2°C° 0 mm 6 mps 737 mmHg 97%
    16:00 +2°C° 0 mm 5 mps 737 mmHg 95%
    17:00 +2°C° 0 mm 5 mps 737 mmHg 93%
    18:00 +3°C° 0 mm 4 mps 738 mmHg 92%
    19:00 +3°C° 0 mm 4 mps 738 mmHg 91%
    20:00 +1°C° 0 mm 4 mps 738 mmHg 90%
    21:00 +2°C° 0 mm 3 mps 739 mmHg 89%
    22:00 +2°C° 0 mm 3 mps 739 mmHg 89%
    23:00 +1°C° 0 mm 3 mps 739 mmHg 88%

    31 March, Sunday

    Time Temperature Precipitation Wind Pressure Humidity
    00:00 +1°C° 0 mm 3 mps 739 mmHg 88%
    01:00 +1°C° 0 mm 3 mps 739 mmHg 89%
    02:00 +1°C° 0 mm 3 mps 739 mmHg 90%
    03:00 +1°C° 0 mm 3 mps 739 mmHg 92%
    04:00 0°C° 0 mm 4 mps 738 mmHg 92%
    05:00 0°C° 0 mm 4 mps 738 mmHg 92%
    06:00 0°C° 0 mm 4 mps 738 mmHg 92%
    07:00 +1°C° 0 mm 4 mps 737 mmHg 93%
    08:00 +1°C° 0 mm 4 mps 737 mmHg 94%
    09:00 +2°C° 0 mm 5 mps 737 mmHg 95%
    10:00 +3°C° 0 mm 5 mps 737 mmHg 91%
    11:00 +5°C° 0 mm 5 mps 736 mmHg 87%
    12:00 +5°C° 0 mm 6 mps 736 mmHg 83%
    13:00 +7°C° 0 mm 5 mps 736 mmHg 81%
    14:00 +7°C° 0 mm 5 mps 736 mmHg 78%
    15:00 +7°C° 0 mm 5 mps 736 mmHg 76%
    16:00 +6°C° 0 mm 4 mps 736 mmHg 77%
    17:00 +6°C° 0 mm 4 mps 736 mmHg 78%
    18:00 +5°C° 0 mm 4 mps 736 mmHg 79%
    19:00 +4°C° 0 mm 3 mps 737 mmHg 80%
    20:00 +3°C° 0 mm 3 mps 737 mmHg 80%
    21:00 +2°C° 0 mm 3 mps 738 mmHg 81%
    22:00 +2°C° 0 mm 3 mps 738 mmHg 81%
    23:00 +1°C° 0 mm 3 mps 738 mmHg 81%
    Show more